Regional Weather Roundup
Issued by NWS

Home | Current Version | Previous Version | Graphics & Text | Print | Product List | Glossary On
Versions: 1 2 3 4 5 6 7 8 9 10 11 12 13 14 15 16 17 18 19 20 21 22 23 24 25 26 27 28 29 30 31 32 33 34 35 36 37 38 39 40 41 42 43 44 45 46 47 48 49 50
334
ASUS43 KIND 151909
RWRIN

WEATHER ROUNDUP FOR INDIANA
NATIONAL WEATHER SERVICE INDIANAPOLIS IN
200 PM EST FRI DEC 15 2017

NOTE: "FAIR" INDICATES FEW OR NO CLOUDS BELOW 12,000 FEET WITH NO
SIGNIFICANT WEATHER AND/OR OBSTRUCTIONS TO VISIBILITY.

* - STATION DOES NOT REPORT WEATHER SUCH AS PRECIPITATION OR FOG.

+ - STATION NOT QUALITY CONTROLLED BY THE NATIONAL WEATHER SERVICE.
    USE DATA WITH CAUTION...ESPECIALLY DEWPOINT AND RELATIVE
    HUMIDITY OBSERVATIONS.

INZ001>003-010>013-019-020-152000-
NORTHWEST INDIANA

CITY           SKY/WX    TMP DP  RH WIND       PRES   REMARKS
GARY /AIRPORT/ PTSUNNY   36  14  41 W20G32    29.92F WCI  25
KNOX *+        PTSUNNY   30  18  59 W14       29.92S WCI  20
LA PORTE +     MOSUNNY   28  16  59 W12G23    29.91S WCI  18
MICHIGAN CITY+ PTSUNNY   32  16  51 W15G23    29.91F WCI  22
MONTICELLO +   PTSUNNY   31  14  49 W14G22    29.95S WCI  21
RENSSELAER +   MOSUNNY   34  10  37 W15       29.94F WCI  24
VALPARAISO     MOSUNNY   33  16  49 W16G28    29.91F WCI  23

$$

LMZ046-743>745-152000-
SOUTHERN LAKE MICHIGAN

STATION/POSITION TIME  TEMP    WIND        PRES    WAVE
                       AIR SEA DIR/SP/G            HT
                 (UTC) (F)     (DEG/KT/KT) (MB)    (FT)
BURNS HARBOR     1840   30     280/ 16/ 20 1013.2F
MICHIGAN CITY    1840   29     270/ 28/ 32   N/A

$$

INZ004-005-014>016-021>024-152000-
NORTH CENTRAL INDIANA

CITY           SKY/WX    TMP DP  RH WIND       PRES   REMARKS
ELKHART        PTSUNNY   27  16  63 W12       29.88S WCI  16
GOSHEN         CLOUDY    26  19  74 W15       29.88F WCI  14
LOGANSPORT +   CLOUDY    32  18  55 W20G29    29.95S WCI  20
PERU/GRISSOM   CLOUDY    31  17  56 W23G30    29.92F WCI  17
ROCHESTER +    CLOUDY    32  19  59 W12G21    29.92F WCI  23
SOUTH BEND     CLOUDY    27  18  69 W18       29.89F WCI  14
WARSAW +       MOSUNNY   28  19  69 W17       29.90S WCI  16

$$

INZ006>009-017-018-025>027-152000-
NORTHEAST INDIANA

CITY           SKY/WX    TMP DP  RH WIND       PRES   REMARKS
AUBURN +       FLURRIES  28  21  74 W13G20    29.88S WCI  18
FORT WAYNE     LGT SNOW  27  22  81 W15       29.90F WCI  15
HUNTINGTON +   CLOUDY    28  17  64 W21G29    29.91F WCI  15
KENDALLVILLE + CLOUDY    26  20  79 W14       29.87R HAZE    WCI  14

$$

INZ028-029-035-036-043>045-051>053-152000-
WEST CENTRAL INDIANA

CITY           SKY/WX    TMP DP  RH WIND       PRES   REMARKS
CRAWFORDSVL +  CLOUDY    29  19  64 MISG        N/A
GREENCASTLE +  CLOUDY    32  21  64 W9        30.01S WCI  24
LAFAYETTE      CLOUDY    31  16  54 W17G23    29.97F WCI  19
TERRE HAUTE    CLOUDY    33  21  61 W12       30.04S WCI  24

$$

INZ030>032-037>040-046>048-054>057-064-065-152000-
CENTRAL INDIANA

CITY           SKY/WX    TMP DP  RH WIND       PRES   REMARKS
ANDERSON       CLOUDY    28  21  74 W12G20    29.96S WCI  18
COLUMBUS       CLOUDY    30  18  59 SW12      30.02F WCI  21
FRANKFORT +    CLOUDY    34  19  56 W25       29.98S WCI  21
INDIANAPOLIS   CLOUDY    31  20  63 W18       29.99F WCI  19
-EAGLE CREEK   CLOUDY    31  20  63 W13G21    29.98F WCI  21
KOKOMO +       CLOUDY    30  18  60 W23G30    29.94F WCI  17
MARION +       CLOUDY    29  18  64 W28       29.94S WCI  14
MT COMFORT *+  CLOUDY    30  23  74 W16       29.98S WCI  19
SHELBYVILLE    CLOUDY    32  19  58 W21G28    29.99S WCI  20
ZIONSVILLE +   CLOUDY    29  20  69 W16G23    29.97S WCI  17

$$

INZ033-034-041-042-049-050-058-059-152000-
EAST CENTRAL INDIANA

CITY           SKY/WX    TMP DP  RH WIND       PRES   REMARKS
MUNCIE         CLOUDY    30  20  66 W18G24    29.94F WCI  18
RICHMOND +     CLOUDY    28  21  74 W16G24    29.95S WCI  17

$$

INZ060-061-067>069-081>083-085>088-152000-
SOUTHWEST INDIANA

CITY           SKY/WX    TMP DP  RH WIND       PRES   REMARKS
EVANSVILLE     CLOUDY    39  24  55 SW6G20    30.09F WCI  35
HUNTINGBURG +  CLOUDY    37  23  56 SW14      30.07F WCI  28
WASHINGTON +   CLOUDY    35  21  57 W9        30.05F WCI  28

$$

INZ062-063-066-070>080-084-089>092-152000-
SOUTH CENTRAL AND SOUTHEAST INDIANA

CITY           SKY/WX    TMP DP  RH WIND       PRES   REMARKS
BEDFORD +      CLOUDY    32  21  64 W8G17     30.03F WCI  25
BLOOMINGTON    CLOUDY    31  20  63 W9        30.02F WCI  23
MADISON *+     CLOUDY    32  19  59 W10       30.04F WCI  24
NORTH VERNON + CLOUDY    30  19  64 SW12      30.02F WCI  21
SEYMOUR +      CLOUDY    34  19  55 SW12      30.03F WCI  25

$$





USA.gov is the U.S. government's official web portal to all federal, state and local government web resources and services.